Weather History for Osceola Municipal, IA

Change the Weather History Date:

Thursday, December 6, 2012

  Actual Average (KLWD) Record (KLWD)
Temperature  
Mean Temperature 48 °F 30 °F  
Max Temperature 52 °F 38 °F 61 °F (1963)
Min Temperature 43 °F 21 °F -3 °F (1972)
Degree Days  
Heating Degree Days 18 36  
Month to date heating degree days 207  
Since 1 July heating degree days 1455  
Cooling Degree Days 0 0  
Month to date cooling degree days 0  
Year to date cooling degree days 946  
Moisture  
Dew Point 35 °F    
Average Humidity 63    
Maximum Humidity 88    
Minimum Humidity 53    
Precipitation  
Precipitation 0.00 in 0.05 in 0.49 in (1998)
Month to date precipitation 0.32  
Sea Level Pressure  
Sea Level Pressure 29.93 in    
Wind  
Wind Speed 11 mph (SSW)    
Max Wind Speed 16 mph    
Max Gust Speed 22 mph    
Visibility 10 miles    
Events      
T = Trace of Precipitation, MM = Missing Value Source: NWS Daily Summary

Daily Weather History Graph

Daily Weather History Graph

Search for Another Location

Airport:

Trip Planner

Search our weather history database for the weather conditions in past years. The results will help you decide how hot, cold, wet, or windy it might be!

Date:

Astronomy

Dec. 06, 2012 Rise Set
Actual Time 7:25 AM CST 4:46 PM CST
Civil Twilight 6:54 AM CST 5:17 PM CST
Nautical Twilight 6:20 AM CST 5:51 PM CST
Astronomical Twilight 5:47 AM CST 6:24 PM CST
Moon No Moon Rise 12:15 PM CST (12/6)
Length of Visible Light 10h 22m
Length of Day
9h 20m
Waning Gibbous, 49% of the Moon is Illuminated
Dec 6
Waning Gibbous
Dec 13
New
Dec 19
First Quarter
Dec 28
Full
Jan 4
Last Quarter

Hourly Weather History & Observations

Time (CST) Temp. Windchill Dew Point Humidity Pressure Visibility Wind Dir Wind Speed Gust Speed Precip Events Conditions
12:15 AM 48.0 °F - 33.8 °F 58% 29.99 in 10.0 mi SSE 13.8 mph - N/A   Clear
12:35 AM 48.2 °F - 33.6 °F 57% 29.98 in 10.0 mi South 15.0 mph 19.6 mph N/A   Clear
12:55 AM 48.0 °F - 33.4 °F 57% 29.99 in 10.0 mi SSE 12.7 mph 18.4 mph N/A   Clear
1:15 AM 47.8 °F - 33.4 °F 57% 29.98 in 10.0 mi South 11.5 mph - N/A   Clear
1:35 AM 47.7 °F - 33.6 °F 58% 29.98 in 10.0 mi South 10.4 mph - N/A   Clear
1:55 AM 47.7 °F - 33.6 °F 58% 29.97 in 10.0 mi South 10.4 mph - N/A   Scattered Clouds
2:15 AM 47.7 °F - 33.3 °F 57% 29.97 in 10.0 mi South 11.5 mph - N/A   Scattered Clouds
2:35 AM 48.2 °F - 32.9 °F 55% 29.97 in 10.0 mi South 12.7 mph - N/A   Scattered Clouds
2:55 AM 48.4 °F - 32.9 °F 55% 29.96 in 10.0 mi South 13.8 mph - N/A   Mostly Cloudy
3:15 AM 48.2 °F - 32.9 °F 55% 29.95 in 10.0 mi SSE 13.8 mph 19.6 mph N/A   Overcast
3:35 AM 48.4 °F - 32.4 °F 54% 29.95 in 10.0 mi South 13.8 mph 19.6 mph N/A   Mostly Cloudy
3:55 AM 48.2 °F - 32.0 °F 54% 29.94 in 10.0 mi South 12.7 mph 20.7 mph N/A   Scattered Clouds
4:15 AM 48.2 °F - 32.0 °F 54% 29.94 in 10.0 mi South 13.8 mph 21.9 mph N/A   Clear
4:35 AM 48.2 °F - 32.0 °F 54% 29.94 in 10.0 mi South 16.1 mph - N/A   Clear
4:55 AM 47.8 °F - 32.0 °F 54% 29.93 in 10.0 mi South 15.0 mph 20.7 mph N/A   Clear
5:15 AM 47.7 °F - 32.0 °F 55% 29.92 in 10.0 mi South 15.0 mph 18.4 mph N/A   Clear
5:35 AM 47.5 °F - 31.8 °F 55% 29.93 in 10.0 mi South 9.2 mph - N/A   Clear
5:55 AM 47.3 °F - 31.1 °F 53% 29.92 in 10.0 mi South 12.7 mph - N/A   Clear
6:15 AM 47.3 °F - 31.1 °F 53% 29.93 in 10.0 mi South 11.5 mph - N/A   Clear
6:35 AM 46.8 °F - 31.1 °F 55% 29.93 in 10.0 mi South 11.5 mph 18.4 mph N/A   Clear
6:55 AM 46.6 °F - 31.1 °F 55% 29.92 in 10.0 mi South 15.0 mph 19.6 mph N/A   Clear
7:15 AM 46.4 °F 40.7 °F 31.1 °F 55% 29.94 in 10.0 mi South 12.7 mph 17.3 mph N/A   Mostly Cloudy
7:35 AM 45.7 °F 39.5 °F 31.6 °F 58% 29.93 in 10.0 mi South 13.8 mph - N/A   Scattered Clouds
7:55 AM 45.7 °F 39.5 °F 31.8 °F 58% 29.92 in 10.0 mi South 13.8 mph - N/A   Clear
8:15 AM 45.7 °F 40.2 °F 32.0 °F 59% 29.92 in 10.0 mi South 11.5 mph - N/A   Clear
8:35 AM 46.0 °F 39.9 °F 32.0 °F 58% 29.93 in 10.0 mi South 13.8 mph - N/A   Clear
8:55 AM 46.4 °F 40.7 °F 32.2 °F 58% 29.92 in 10.0 mi South 12.7 mph 17.3 mph N/A   Clear
9:15 AM 46.4 °F 40.1 °F 32.2 °F 58% 29.92 in 10.0 mi South 15.0 mph - N/A   Scattered Clouds
9:35 AM 46.4 °F 40.7 °F 32.5 °F 59% 29.93 in 10.0 mi South 12.7 mph 17.3 mph N/A   Overcast
9:55 AM 46.8 °F - 32.9 °F 59% 29.93 in 10.0 mi South 12.7 mph - N/A   Mostly Cloudy
10:15 AM 47.3 °F - 32.9 °F 57% 29.93 in 10.0 mi South 13.8 mph - N/A   Scattered Clouds
10:35 AM 47.3 °F - 33.1 °F 58% 29.92 in 10.0 mi South 15.0 mph 19.6 mph N/A   Clear
10:55 AM 47.7 °F - 33.4 °F 58% 29.92 in 10.0 mi South 13.8 mph 17.3 mph N/A   Clear
11:15 AM 47.8 °F - 33.8 °F 58% 29.91 in 10.0 mi South 12.7 mph - N/A   Clear
11:35 AM 48.7 °F - 34.7 °F 58% 29.91 in 10.0 mi SSW 10.4 mph - N/A   Scattered Clouds
11:55 AM 49.5 °F - 35.1 °F 58% 29.90 in 10.0 mi SSW 12.7 mph - N/A   Scattered Clouds
12:15 PM 50.2 °F - 35.6 °F 57% 29.89 in 10.0 mi SW 10.4 mph - N/A   Clear
12:35 PM 51.1 °F - 36.3 °F 57% 29.89 in 10.0 mi SW 9.2 mph - N/A   Clear
12:55 PM 51.3 °F - 36.5 °F 57% 29.89 in 10.0 mi SW 9.2 mph - N/A   Scattered Clouds
1:15 PM 51.8 °F - 36.9 °F 57% 29.89 in 10.0 mi WSW 9.2 mph - N/A   Mostly Cloudy
1:35 PM 51.3 °F - 36.7 °F 57% 29.89 in 10.0 mi WSW 9.2 mph - N/A   Scattered Clouds
1:55 PM 51.6 °F - 37.0 °F 58% 29.89 in 10.0 mi WSW 5.8 mph - N/A   Mostly Cloudy
2:15 PM 51.8 °F - 36.9 °F 57% 29.88 in 10.0 mi WSW 5.8 mph - N/A   Mostly Cloudy
2:35 PM 51.8 °F - 37.0 °F 57% 29.88 in 10.0 mi West 6.9 mph - N/A   Mostly Cloudy
2:55 PM 52.3 °F - 37.4 °F 57% 29.89 in 10.0 mi WSW 6.9 mph - N/A   Scattered Clouds
3:15 PM 51.8 °F - 36.1 °F 55% 29.89 in 10.0 mi WNW 6.9 mph - N/A   Scattered Clouds
3:35 PM 51.1 °F - 35.2 °F 55% 29.89 in 10.0 mi NW 6.9 mph - N/A   Mostly Cloudy
3:55 PM 50.5 °F - 35.2 °F 56% 29.89 in 10.0 mi NW 5.8 mph - N/A   Overcast
4:15 PM 50.2 °F - 35.2 °F 57% 29.90 in 10.0 mi NNW 3.5 mph - N/A   Overcast
4:35 PM 49.3 °F - 35.1 °F 58% 29.90 in 10.0 mi NNW 5.8 mph - N/A   Overcast
4:55 PM 48.9 °F - 35.1 °F 59% 29.90 in 10.0 mi North 5.8 mph - N/A   Overcast
5:15 PM 47.8 °F - 34.5 °F 60% 29.90 in 10.0 mi North 10.4 mph - N/A   Overcast
5:35 PM 46.4 °F 42.4 °F 36.9 °F 69% 29.92 in 10.0 mi NNW 8.1 mph - N/A   Light Drizzle
5:55 PM 45.5 °F 41.8 °F 37.8 °F 74% 29.92 in 10.0 mi NNW 6.9 mph - N/A   Overcast
6:15 PM 44.8 °F 40.4 °F 38.7 °F 79% 29.93 in 10.0 mi NNW 8.1 mph - N/A   Light Drizzle
6:35 PM 44.2 °F 41.0 °F 39.4 °F 83% 29.94 in 10.0 mi NNW 5.8 mph - N/A   Light Drizzle
6:55 PM 43.9 °F 40.5 °F 39.7 °F 85% 29.93 in 10.0 mi North 5.8 mph - N/A   Overcast
7:15 PM 43.7 °F 41.1 °F 39.9 °F 87% 29.93 in 10.0 mi North 4.6 mph - N/A   Overcast
7:35 PM 43.7 °F 42.1 °F 39.9 °F 87% 29.93 in 10.0 mi NNE 3.5 mph - N/A   Overcast
8:35 PM 43.3 °F - 40.1 °F 88% 29.96 in 10.0 mi Calm Calm - N/A   Overcast
8:55 PM 43.2 °F - 39.9 °F 88% 29.96 in 10.0 mi Calm Calm - N/A   Overcast
9:15 PM 43.3 °F - 39.6 °F 87% 29.96 in 10.0 mi Calm Calm - N/A   Light Drizzle
9:35 PM 43.2 °F 41.5 °F 39.6 °F 87% 29.96 in 10.0 mi North 3.5 mph - N/A   Overcast
9:55 PM 43.2 °F 40.5 °F 39.6 °F 87% 29.96 in 10.0 mi North 4.6 mph - N/A   Overcast
10:15 PM 43.5 °F 40.1 °F 39.2 °F 85% 29.97 in 10.0 mi North 5.8 mph - N/A   Overcast
10:35 PM 43.5 °F 38.9 °F 38.5 °F 82% 29.95 in 10.0 mi North 8.1 mph - N/A   Overcast
10:55 PM 43.3 °F 38.6 °F 37.9 °F 81% 29.96 in 10.0 mi North 8.1 mph - N/A   Overcast
11:15 PM 43.5 °F 38.9 °F 36.9 °F 77% 29.96 in 10.0 mi North 8.1 mph - N/A   Overcast
11:35 PM 43.3 °F 39.9 °F 36.9 °F 78% 29.97 in 10.0 mi North 5.8 mph - N/A   Overcast
11:55 PM 43.2 °F 41.5 °F 36.7 °F 78% 29.97 in 10.0 mi North 3.5 mph - N/A   Light Drizzle